CAPE
0 0 0 0 0 0 0 0 0 0 0 0 0 0 0 0 0 0 0 0 0 0 0 0 0 1 0 1 4 2 0 0 1 1 7 8 4 2 20 360 481 385 354
0 0 0 0 0 0 0 0 0 0 0 0 0 0 0 0 0 0 0 0 0 0 0 0 0 3 13 15 12 12 17 20 11 5 0 0 3 0 0 0 6 72 124
0 0 0 0 0 0 0 0 0 0 0 0 0 0 0 0 0 0 0 0 0 0 0 1 0 0 0 1 0 0 0 0 0 0 0 1 12 7 0 4 34 60 37
0 0 0 0 0 0 0 0 0 0 0 0 0 0 0 0 0 0 0 0 0 0 1 0 0 2 2 1 0 2 2 0 4 8 0 0 0 0 4 22 24 32 34
0 0 0 0 0 0 0 0 0 0 0 0 0 0 0 0 0 0 0 0 0 1 1 1 4 3 1 1 0 2 1 1 3 7 10 17 14 4 4 0 0 1 4
0 0 0 0 0 0 0 0 0 0 0 0 0 0 0 1 0 0 0 0 0 1 1 2 3 2 3 0 0 0 0 2 3 4 3 10 10 24 21 14 9 0 0
0 0 0 0 0 0 0 0 0 0 0 0 0 1 1 1 0 0 0 0 0 2 0 1 1 4 0 3 0 2 2 1 2 4 2 1 3 2 6 3 3 5 5
0 0 0 0 0 0 0 0 0 0 0 1 1 0 0 2 0 0 0 0 1 0 0 0 1 0 3 0 3 3 6 4 4 4 7 4 6 4 9 2 1 2 0
0 0 0 0 0 0 0 0 0 1 1 0 0 1 1 0 0 0 0 0 0 0 2 1 1 1 0 0 0 2 1 1 2 2 1 0 0 0 0 4 1 4 2
0 0 0 0 0 0 0 0 1 0 0 0 1 2 1 0 0 0 0 0 0 0 0 0 0 0 0 0 0 2 3 2 1 2 1 1 2 3 0 3 3 1 3
0 0 0 0 0 0 0 1 2 2 1 0 0 2 1 0 2 0 0 0 1 0 0 0 0 0 0 0 0 3 3 2 2 2 2 4 4 3 6 8 16 3 2
0 0 0 0 0 1 1 1 0 0 1 1 1 0 0 1 0 0 0 0 0 1 0 0 0 0 0 0 0 0 0 0 2 3 2 2 3 3 2 5 9 15 3
0 0 0 1 1 1 1 1 0 0 0 0 0 0 0 0 1 0 0 0 0 0 0 0 0 0 0 0 1 0 0 1 2 3 3 2 1 2 5 1 5 10 10
1 1 0 0 0 0 0 0 0 0 0 0 0 0 0 0 0 0 0 0 0 0 0 0 0 0 0 0 1 2 3 0 1 2 2 2 0 2 2 5 7 2 2
1 2 1 0 0 0 0 0 0 0 0 0 0 0 0 0 0 0 0 0 0 0 2 0 1 1 3 3 2 2 3 2 4 1 2 2 2 1 1 0 0 2 3
3 2 0 2 1 1 0 0 0 0 0 0 0 0 0 0 0 0 0 0 0 0 1 2 2 4 5 4 3 2 2 4 2 5 1 2 2 2 2 2 1 1 1
1 1 0 0 1 3 1 1 0 0 0 0 0 0 0 0 0 0 0 0 0 0 0 0 3 4 6 5 3 2 2 3 3 3 3 2 2 2 2 2 1 1 1
1 0 1 5 3 4 4 2 3 1 1 0 0 0 0 0 0 0 0 0 0 0 0 1 4 4 6 5 2 2 2 2 3 3 3 3 2 2 2 2 1 1 1
3 0 1 2 0 0 1 3 4 3 5 2 1 0 0 0 0 0 0 0 1 0 0 3 4 5 4 2 1 1 1 2 2 4 5 4 3 1 4 3 2 0 1
3 0 0 0 1 1 1 3 4 2 4 5 3 2 0 1 0 0 0 0 1 1 1 2 3 2 2 2 2 2 3 3 5 8 10 6 4 3 3 2 0 1 1
0 0 0 0 0 0 1 1 1 3 3 5 4 1 0 0 0 2 0 0 0 1 1 2 2 2 3 2 2 2 4 6 5 7 10 7 2 2 3 2 5 2 1
0 0 0 0 0 0 0 0 0 0 1 2 0 0 0 1 2 1 0 0 1 1 1 2 2 3 3 2 3 3 7 9 8 10 10 9 3 1 10 15 8 1 2
0 0 0 0 0 0 0 0 0 0 0 0 0 0 0 0 1 1 0 1 0 0 0 1 1 2 2 2 3 2 5 7 6 5 12 8 1 0 13 4 1 0 1
0 0 0 0 0 0 0 0 0 0 0 0 0 0 0 1 1 1 1 0 0 0 0 0 0 0 0 1 1 2 2 3 4 7 8 9 3 2 1 0 0 1 1
0 0 0 0 0 0 0 0 0 0 0 0 0 0 1 0 0 1 1 1 1 0 0 0 0 0 0 0 0 2 3 6 7 7 11 4 2 1 1 1 0 0 2
0 0 0 0 0 0 0 0 0 0 0 0 0 0 1 1 2 1 1 0 0 0 1 0 0 0 0 0 0 1 3 6 8 2 4 4 3 1 0 0 1 3 3
CIN
-0 -0 -0 -0 -0 -0 -0 -0 -0 -0 -0 -0 -0 -0 -0 -0 -0 -0 -0 -0 -0 -0 -0 -0 -0 -0 -0 -2 -1 -2 -0 -0 -0 -0 -3 -7 -24 -9 -7 -5 -6 -16 -36
-0 -0 -0 -0 -0 -0 -0 -0 -0 -0 -0 -0 -0 -0 -0 -0 -0 -0 -0 -0 -0 -0 -0 -0 -1 -1 -1 -2 -3 -4 -2 -2 -0 -0 -0 -0 -1 -0 -0 -0 -4 -1 -2
-0 -0 -0 -0 -0 -0 -0 -0 -0 -0 -0 -0 -0 -0 -0 -0 -0 -0 -0 -0 -0 -0 -0 -1 -3 -0 -0 -1 -0 -0 -0 -0 -0 -0 -0 -1 -4 -5 -3 -10 -2 -0 -2
-0 -0 -0 -0 -0 -0 -0 -0 -0 -0 -0 -0 -0 -0 -0 -0 -0 -0 -0 -0 -0 -0 -0 -1 -2 -1 -0 -0 -1 -0 -1 -0 -0 -0 -0 -0 -0 -0 -28 -7 -3 -0 -0
-0 -0 -0 -0 -0 -0 -0 -0 -0 -0 -0 -0 -0 -0 -0 -0 -0 -0 -0 -0 -0 -1 -1 -0 -0 -2 -5 -3 -1 -0 -1 -0 -0 -0 -0 -0 -0 -1 -0 -0 -0 -8 -19
-0 -0 -0 -0 -0 -0 -0 -0 -0 -0 -0 -0 -0 -0 -0 -1 -0 -0 -0 -0 -0 -1 -1 -1 -0 -0 -1 -0 -0 -0 -0 -0 -0 -0 -0 -5 -0 -0 -1 -1 -1 -0 -0
-0 -0 -0 -0 -0 -0 -0 -0 -0 -0 -0 -0 -0 -1 -1 -0 -0 -0 -0 -0 -0 -0 -0 -0 -0 -0 -0 -0 -0 -1 -0 -2 -1 -0 -0 -0 -0 -0 -0 -0 -0 -0 -0
-0 -0 -0 -0 -0 -0 -0 -0 -0 -0 -0 -0 -0 -0 -0 -0 -0 -0 -0 -0 -0 -1 -0 -0 -1 -2 -0 -1 -0 -1 -1 -1 -1 -0 -1 -0 -0 -1 -0 -0 -0 -0 -0
-0 -0 -0 -0 -0 -0 -0 -0 -0 -0 -1 -2 -0 -1 -0 -0 -0 -0 -0 -0 -0 -0 -0 -0 -0 -0 -0 -0 -0 -0 -0 -0 -0 -1 -4 -1 -0 -0 -0 -0 -0 -0 -0
-0 -0 -0 -0 -0 -0 -0 -1 -1 -0 -1 -1 -1 -0 -1 -0 -0 -0 -0 -0 -0 -0 -0 -0 -0 -0 -0 -0 -0 -0 -0 -0 -0 -0 -0 -0 -0 -0 -0 -2 -0 -0 -0
-0 -0 -0 -0 -0 -0 -1 -0 -0 -0 -0 -0 -1 -0 -0 -0 -0 -0 -0 -0 -1 -0 -0 -0 -0 -0 -0 -0 -0 -0 -0 -0 -0 -0 -0 -0 -0 -0 -0 -0 -0 -0 -0
-0 -0 -0 -0 -0 -0 -0 -1 -0 -0 -0 -1 -0 -0 -1 -0 -0 -0 -0 -0 -0 -0 -0 -0 -0 -0 -0 -0 -0 -0 -0 -0 -0 -0 -0 -0 -0 -1 -0 -0 -0 -0 -5
-0 -1 -0 -1 -1 -0 -1 -1 -0 -1 -1 -1 -0 -0 -0 -0 -1 -0 -0 -0 -0 -0 -0 -0 -0 -0 -0 -0 -0 -0 -0 -0 -0 -0 -0 -0 -0 -0 -0 -2 -1 -2 -0
-1 -1 -1 -0 -0 -0 -1 -0 -0 -0 -0 -0 -0 -1 -0 -0 -0 -0 -0 -0 -0 -0 -0 -0 -0 -0 -0 -0 -0 -0 -0 -0 -0 -0 -0 -0 -0 -0 -0 -0 -0 -0 -0
-0 -1 -1 -0 -0 -0 -0 -1 -1 -1 -0 -0 -0 -0 -0 -0 -0 -0 -0 -0 -0 -0 -0 -0 -0 -0 -0 -0 -0 -0 -0 -0 -0 -0 -0 -0 -0 -0 -0 -0 -0 -0 -0
-1 -0 -1 -1 -1 -0 -0 -0 -0 -0 -0 -0 -0 -0 -0 -0 -0 -0 -0 -0 -0 -0 -0 -0 -0 -0 -0 -0 -0 -0 -0 -0 -0 -0 -0 -0 -0 -0 -0 -0 -0 -0 -0
-0 -0 -0 -0 -1 -0 -1 -1 -1 -1 -0 -0 -0 -0 -0 -0 -0 -0 -0 -0 -0 -0 -0 -0 -0 -0 -0 -0 -0 -0 -0 -0 -0 -0 -0 -0 -0 -0 -0 -0 -0 -0 -0
-0 -0 -0 -0 -0 -0 -0 -1 -1 -1 -1 -1 -0 -0 -0 -0 -0 -0 -0 -0 -0 -0 -0 -0 -0 -0 -0 -0 -0 -0 -0 -0 -0 -0 -0 -0 -0 -0 -0 -0 -0 -0 -0
-0 -1 -0 -1 -1 -1 -1 -0 -0 -0 -1 -1 -1 -1 -0 -0 -0 -0 -0 -0 -1 -1 -0 -0 -0 -0 -0 -0 -0 -0 -0 -0 -0 -0 -0 -0 -0 -0 -0 -0 -0 -0 -0
-0 -0 -1 -1 -2 -1 -1 -1 -0 -0 -0 -0 -0 -0 -0 -0 -0 -0 -0 -0 -1 -1 -0 -0 -0 -0 -0 -0 -0 -0 -0 -0 -0 -0 -0 -0 -0 -0 -0 -0 -0 -4 -0
-0 -0 -0 -0 -0 -1 -1 -1 -1 -1 -0 -0 -0 -0 -0 -0 -0 -1 -0 -0 -0 -0 -0 -0 -0 -0 -0 -0 -0 -0 -0 -0 -0 -0 -0 -0 -0 -0 -0 -0 -1 -4 -0
-0 -0 -0 -0 -0 -0 -0 -0 -1 -1 -1 -1 -1 -1 -0 -1 -1 -1 -0 -0 -0 -0 -0 -0 -0 -0 -0 -0 -0 -0 -0 -0 -0 -0 -0 -0 -0 -0 -1 -0 -0 -0 -0
-0 -0 -0 -0 -0 -0 -0 -0 -0 -0 -1 -2 -0 -0 -0 -2 -1 -1 -1 -1 -0 -0 -0 -0 -0 -0 -0 -0 -0 -0 -0 -0 -0 -0 -0 -0 -0 -0 -1 -2 -2 -0 -0
-0 -0 -0 -0 -0 -0 -0 -0 -0 -0 -0 -0 -0 -1 -2 -2 -1 -1 -1 -0 -0 -0 -0 -0 -0 -0 -0 -0 -0 -0 -0 -0 -0 -0 -0 -0 -0 -0 -6 -0 -0 -0 -0
-0 -0 -0 -0 -0 -0 -0 -0 -0 -0 -0 -0 -0 -1 -1 -2 -1 -1 -1 -1 -1 -0 -0 -0 -0 -0 -0 -0 -0 -0 -0 -0 -0 -0 -0 -0 -0 -0 -0 -0 -0 -0 -0
-0 -0 -0 -0 -0 -0 -0 -0 -0 -0 -0 -0 -1 -1 -1 -1 -1 -1 -1 -1 -1 -2 -0 -0 -0 -0 -0 -0 -0 -0 -0 -0 -0 -0 -0 -0 -0 -0 -0 -0 -0 -0 -0
Wind_Speed
2 3 5 8 10 14 18 21 23 26 28 31 33 34 36 37 38 38 38 39 40 41 39 39 40 38 36 34 33 33 34 35 40 39 39 39 41 40 38 29 28 31 33
2 4 7 10 14 17 20 23 26 28 31 33 34 35 37 38 38 39 40 40 41 41 40 40 38 35 36 35 35 35 36 36 37 39 37 37 38 41 43 42 40 38 37
3 7 10 13 17 20 23 26 29 31 34 36 36 38 38 38 39 39 39 39 38 39 37 35 36 35 34 33 34 34 34 35 36 38 39 39 41 40 41 40 38 35 35
6 9 13 17 20 23 26 28 31 34 37 39 38 39 38 38 39 38 36 38 37 34 34 33 33 32 32 33 34 33 33 34 35 36 36 37 38 38 39 39 39 39 38
10 13 16 19 23 25 29 32 34 37 39 41 40 39 36 37 36 36 37 36 33 32 30 30 30 33 35 32 32 32 35 35 37 38 38 37 36 37 38 37 40 39 38
14 17 21 24 27 30 32 35 38 40 41 40 38 36 36 34 33 36 35 33 31 31 32 32 32 32 32 35 34 33 32 33 34 35 36 39 39 37 36 38 40 41 43
18 21 24 27 30 34 37 39 40 42 41 39 36 35 34 33 30 33 33 32 30 32 32 32 33 32 34 33 33 33 32 31 30 31 34 33 36 36 37 39 39 41 40
22 26 29 33 35 37 39 40 40 39 39 37 35 33 32 33 30 31 32 32 32 31 33 32 31 31 30 31 32 31 31 29 28 26 27 31 31 33 32 35 37 37 36
28 30 33 34 37 39 39 39 37 36 36 34 31 32 32 32 29 30 34 33 32 33 32 30 29 28 29 31 30 29 28 26 24 20 18 17 19 26 29 33 34 36 38
30 33 33 34 35 36 36 36 35 34 32 32 32 32 31 30 25 29 35 31 33 34 30 28 26 24 28 31 31 28 26 24 24 23 22 21 19 19 20 20 25 30 32
31 32 32 33 34 34 34 34 31 30 32 32 33 31 29 28 29 30 31 32 32 31 29 28 26 29 31 30 28 26 24 23 20 19 21 20 16 14 15 15 16 20 28
30 31 32 33 32 32 31 30 30 30 30 31 31 31 30 29 29 31 30 28 28 27 25 25 26 35 26 27 26 26 23 18 16 17 17 15 14 13 13 11 14 14 20
29 30 31 31 31 29 29 28 28 29 30 30 31 31 31 31 33 33 31 35 31 24 22 20 25 27 27 31 27 24 22 19 16 17 17 15 15 12 11 13 12 16 22
28 29 30 30 31 28 27 28 29 29 30 31 32 32 32 33 33 32 36 35 31 26 28 31 27 29 31 31 31 28 26 19 14 14 14 13 12 14 12 10 7 11 24
29 29 30 29 29 28 27 28 27 29 31 31 31 31 32 33 34 38 37 32 28 20 13 23 29 30 35 36 37 29 25 20 17 13 13 13 11 9 5 4 3 8 29
29 29 29 28 27 27 26 27 23 27 29 26 26 28 33 33 39 38 38 35 23 11 21 29 30 29 34 36 31 23 22 12 10 13 12 11 9 5 2 3 8 16 24
29 30 29 27 27 27 27 28 30 30 26 26 27 28 32 36 37 37 38 37 13 14 23 31 29 31 33 30 25 21 13 11 13 13 12 14 10 5 6 8 11 16 22
29 29 28 28 28 28 28 29 30 31 32 31 28 32 33 35 35 35 36 32 22 21 27 31 30 31 29 29 21 20 13 12 17 18 20 14 8 7 8 10 13 16 21
29 30 29 27 27 28 28 29 29 29 30 30 30 30 34 33 32 33 34 30 28 27 28 31 29 24 23 26 20 19 13 11 12 16 15 7 7 10 13 13 13 15 18
28 27 28 28 28 28 28 28 28 29 29 30 30 30 33 30 30 32 34 32 28 28 28 26 7 13 15 21 17 15 13 14 11 13 13 4 5 15 14 13 12 11 15
26 27 27 28 28 28 27 27 27 28 29 29 29 29 30 27 28 30 32 33 29 27 25 25 14 10 13 15 15 15 18 17 12 10 11 4 10 17 13 11 14 12 21
26 27 28 28 28 27 27 27 27 27 28 28 29 29 27 26 27 28 31 28 27 25 24 27 31 16 7 9 14 21 21 18 15 10 6 6 4 7 12 18 19 15 16
24 26 26 27 27 26 27 27 27 27 27 28 28 27 25 26 27 28 29 25 26 23 24 26 28 19 16 7 8 15 19 18 15 10 7 2 4 8 16 9 13 15 18
23 24 25 26 27 27 27 27 27 27 27 28 28 24 24 26 27 28 28 28 23 22 27 27 29 23 21 12 7 14 16 20 15 10 8 3 4 12 17 17 16 19 19
23 24 25 26 27 27 27 27 27 27 27 28 26 23 24 26 27 28 28 28 29 27 26 29 29 30 26 26 25 19 20 23 21 17 12 8 5 20 20 19 17 20 17
23 24 24 25 26 27 27 27 26 26 26 27 22 23 25 27 27 28 29 29 30 30 29 29 30 31 28 28 27 22 21 22 24 21 16 14 14 11 21 22 21 21 22
Wind_Direction
294 332 341 340 337 336 337 337 338 338 337 334 333 332 332 331 331 330 329 329 328 328 328 326 325 324 322 321 320 319 317 315 311 311 311 309 304 303 303 303 299 296 295
314 326 326 329 330 334 334 335 335 333 333 331 331 331 331 330 329 329 329 329 328 328 328 327 327 328 326 325 323 321 318 317 314 311 310 309 305 300 296 294 293 294 292
312 319 323 325 328 330 331 331 331 330 328 328 330 329 329 330 329 329 329 330 332 331 331 333 332 331 329 328 326 323 321 319 316 314 312 309 305 302 300 298 296 293 292
313 323 323 325 325 326 328 329 330 328 324 325 329 329 330 330 330 331 334 334 334 335 336 335 335 334 332 331 328 326 324 322 318 315 311 308 306 304 302 302 295 292 289
316 320 321 324 325 327 326 326 327 326 325 325 327 329 332 332 335 337 336 336 337 339 340 339 338 335 333 333 333 330 326 323 319 315 311 309 308 305 301 300 297 295 293
310 316 319 322 323 322 324 324 323 323 323 326 329 332 333 335 339 339 340 339 340 340 339 340 340 339 339 334 333 332 329 325 321 317 313 308 306 305 303 299 297 291 284
310 318 322 323 322 321 321 321 322 321 322 326 330 333 334 336 340 341 341 341 341 339 341 341 341 341 340 340 338 334 331 327 322 318 314 310 307 305 302 299 295 290 287
315 319 318 318 318 319 319 321 322 324 324 328 330 333 336 338 343 343 342 341 341 343 343 344 346 346 348 347 345 343 340 336 332 327 322 317 312 308 305 300 296 294 293
315 317 320 321 320 317 318 321 325 327 327 329 334 335 335 338 343 343 340 342 343 343 345 348 352 353 354 353 352 349 346 342 341 334 322 312 311 311 306 302 295 290 287
319 319 323 324 322 322 323 325 327 328 331 333 332 333 337 339 346 344 341 345 343 344 348 352 355 357 355 352 351 349 346 345 349 349 341 331 325 320 312 304 301 292 287
318 323 326 327 326 326 326 328 331 333 332 332 333 335 339 343 340 342 344 345 346 346 350 353 356 353 351 351 351 350 345 345 343 345 349 349 341 331 325 310 299 295 286
325 326 327 329 330 331 332 333 334 335 335 335 336 338 339 341 341 340 344 347 347 349 352 355 355 348 351 351 351 352 350 348 350 348 350 353 358 355 345 333 316 297 291
330 331 332 332 333 335 337 338 338 338 337 338 338 338 339 338 336 337 345 341 346 351 355 356 354 355 356 355 357 354 356 359 357 354 350 348 353 357 359 346 332 314 293
339 339 339 339 338 339 340 340 340 340 338 338 338 338 337 335 334 339 337 341 347 351 350 349 359 1 1 2 3 1 359 359 352 349 348 345 345 350 357 2 352 329 288
341 341 342 343 344 344 343 343 343 340 338 337 339 340 337 332 331 328 332 343 348 355 0 4 0 6 3 5 4 7 8 6 360 348 343 345 349 348 355 26 139 175 247
345 346 348 351 352 352 350 348 351 348 343 344 344 343 333 329 323 324 328 336 352 5 1 356 4 11 7 8 10 10 11 359 342 358 356 4 8 20 84 117 169 191 216
350 350 352 353 353 352 352 349 344 342 349 351 347 341 332 326 324 326 326 318 6 14 357 348 5 9 9 13 14 13 352 342 357 1 4 13 25 61 109 141 154 181 211
353 355 354 353 352 349 347 344 343 342 339 342 348 336 330 328 322 334 325 330 4 2 351 349 5 7 14 15 13 11 352 345 12 10 14 19 42 76 128 148 164 180 211
355 355 355 355 352 350 349 346 344 344 342 343 339 333 335 324 337 342 337 348 339 336 346 347 4 16 17 15 11 10 355 345 353 15 16 13 66 109 132 146 156 172 196
357 1 359 355 352 351 350 348 347 346 344 340 335 333 335 325 330 337 346 343 329 320 312 299 4 19 17 20 12 7 331 328 352 8 359 31 150 118 129 144 151 174 181
358 359 2 357 355 355 354 353 349 344 340 336 330 342 330 316 325 330 338 342 326 309 297 298 288 21 22 19 328 327 321 321 336 358 20 52 110 108 132 155 133 160 142
360 359 1 1 0 1 357 355 350 343 335 330 337 336 329 322 324 326 334 325 323 314 300 305 316 27 333 359 322 317 319 321 328 333 12 49 135 147 130 118 115 151 167
2 3 5 7 5 4 1 356 351 342 338 335 341 331 320 322 325 326 326 315 319 311 314 315 315 296 297 328 352 317 316 318 317 314 309 311 111 122 111 192 176 179 174
6 7 7 7 7 4 360 351 347 345 343 342 343 325 318 323 326 326 325 324 312 310 322 322 324 310 305 302 336 318 314 316 315 309 300 278 170 119 110 131 161 158 176
5 6 7 8 4 3 356 348 344 347 341 348 336 318 321 326 327 328 326 322 327 321 319 328 327 326 317 317 319 317 320 323 322 316 312 301 244 92 98 116 167 163 183
4 6 6 7 9 4 359 349 346 342 338 343 320 321 324 330 328 329 328 324 330 328 327 328 329 330 324 323 320 318 320 325 329 325 318 315 322 317 103 117 143 157 154